20050107,000018,261397,30.845358,-121.580548,16.250,33.211,0.160,0.791
20050107,000048,261427,30.845341,-121.580456,16.245,33.216,0.160,0.800
20050107,000118,261456,30.845295,-121.580381,16.248,33.212,0.168,0.830
20050107,000148,261486,30.845205,-121.580303,16.244,33.215,0.168,0.807
20050107,000217,261516,30.845090,-121.580223,16.242,33.216,0.168,0.791
20050107,000248,261547,30.844951,-121.580173,16.243,33.214,0.168,0.807
20050107,000318,261577,30.844825,-121.580150,16.245,33.212,0.160,0.774
20050107,000349,261607,30.844685,-121.580145,16.246,33.211,0.168,0.785
20050107,000418,261636,30.844531,-121.580120,16.252,33.205,0.168,0.762
20050107,000448,261666,30.844358,-121.580090,16.248,33.208,0.160,0.739
20050107,000518,261696,30.844165,-121.580060,16.248,33.210,0.168,0.731
20050107,000547,261725,30.843985,-121.580050,16.248,33.211,0.160,0.690
20050107,000619,261757,30.843800,-121.580048,16.248,33.209,0.168,0.701
20050107,000648,261786,30.843615,-121.580041,16.247,33.211,0.168,0.743
20050107,000718,261816,30.843421,-121.580028,16.251,33.207,0.168,0.754
20050107,000748,261846,30.843221,-121.580016,16.247,33.211,0.168,0.744
20050107,000818,261877,30.843058,-121.579983,16.255,33.205,0.175,0.758
20050107,000849,261907,30.842915,-121.579915,16.247,33.210,0.168,0.729
20050107,000918,261937,30.842805,-121.579878,16.244,33.213,0.168,0.746
20050107,000949,261968,30.842700,-121.579816,16.247,33.210,0.168,0.765
20050107,001018,261996,30.842613,-121.579760,16.245,33.212,0.168,0.783
20050107,001049,262027,30.842536,-121.579695,16.246,33.213,0.168,0.781
20050107,001118,262057,30.842476,-121.579645,16.246,33.211,0.168,0.801
20050107,001149,262087,30.842406,-121.579575,16.243,33.213,0.168,0.792
20050107,001218,262116,30.842373,-121.579550,16.242,33.214,0.175,0.788
20050107,001248,262146,30.842330,-121.579493,16.247,33.210,0.168,0.752
20050107,001318,262176,30.842330,-121.579485,16.240,33.211,0.175,0.811
20050107,001348,262206,30.842316,-121.579436,16.239,33.218,0.168,0.813
20050107,001418,262237,30.842301,-121.579408,16.240,33.216,0.168,0.817
20050107,001448,262267,30.842240,-121.579420,16.242,33.213,0.175,0.839
20050107,001518,262296,30.842173,-121.579480,16.241,33.214,0.168,0.783
20050107,001548,262326,30.842111,-121.579591,16.242,33.212,0.175,0.769
20050107,001618,262356,30.842098,-121.579755,16.241,33.214,0.168,0.770
20050107,001648,262387,30.842115,-121.579925,16.238,33.215,0.175,0.793
20050107,001719,262417,30.842101,-121.580126,16.239,33.214,0.175,0.809
20050107,001748,262447,30.842115,-121.580321,16.238,33.215,0.175,0.775
20050107,001818,262476,30.842143,-121.580495,16.241,33.214,0.175,0.692
20050107,001848,262506,30.842193,-121.580636,16.239,33.214,0.175,0.711
20050107,001918,262536,30.842238,-121.580753,16.239,33.214,0.175,0.730
20050107,001948,262567,30.842286,-121.580838,16.238,33.214,0.175,0.763
20050107,002018,262597,30.842325,-121.580920,16.239,33.214,0.175,0.793
20050107,002048,262626,30.842363,-121.580981,16.236,33.215,0.175,0.789
20050107,002119,262658,30.842393,-121.581071,16.234,33.218,0.175,0.750
20050107,002148,262686,30.842455,-121.581183,16.237,33.213,0.175,0.750
20050107,002218,262717,30.842521,-121.581341,16.237,33.214,0.175,0.772
20050107,002249,262747,30.842633,-121.581490,16.241,33.211,0.175,0.789
20050107,002319,262777,30.842701,-121.581618,16.232,33.217,0.175,0.791
20050107,002348,262806,30.842736,-121.581706,16.234,33.216,0.175,0.795
20050107,002419,262838,30.842783,-121.581801,16.235,33.214,0.175,0.787
20050107,002449,262867,30.842831,-121.581923,16.239,33.213,0.168,0.743
20050107,002520,262899,30.842901,-121.582028,16.241,33.210,0.175,0.726
20050107,002549,262927,30.843015,-121.582145,16.240,33.211,0.175,0.693
20050107,002619,262957,30.843073,-121.582270,16.251,33.203,0.175,0.668
20050107,002649,262988,30.843125,-121.582348,16.242,33.208,0.175,0.657
20050107,002719,263018,30.843186,-121.582403,16.242,33.211,0.175,0.692
20050107,002749,263047,30.843241,-121.582465,16.243,33.208,0.183,0.726
20050107,002819,263077,30.843288,-121.582565,16.245,33.207,0.175,0.688
20050107,002850,263109,30.843365,-121.582701,16.244,33.208,0.175,0.702
20050107,002919,263138,30.843466,-121.582841,16.245,33.207,0.175,0.733
20050107,002950,263168,30.843566,-121.582988,16.245,33.211,0.183,0.710
20050107,003020,263198,30.843631,-121.583150,16.246,33.208,0.191,0.718
20050107,003050,263229,30.843718,-121.583306,16.246,33.209,0.175,0.730
20050107,003119,263257,30.843788,-121.583458,16.241,33.213,0.183,0.748
20050107,003150,263288,30.843875,-121.583675,16.244,33.210,0.191,0.747
20050107,003220,263318,30.843971,-121.584040,16.242,33.212,0.183,0.746
20050107,003250,263348,30.844081,-121.584498,16.250,33.206,0.183,0.763
20050107,003319,263377,30.844195,-121.585018,16.243,33.211,0.183,0.756
20050107,003350,263409,30.844325,-121.585560,16.248,33.208,0.175,0.725
20050107,003420,263439,30.844445,-121.586143,16.242,33.211,0.175,0.701
20050107,003449,263468,30.844580,-121.586696,16.239,33.213,0.175,0.694
20050107,003520,263498,30.844706,-121.587275,16.242,33.211,0.175,0.662
20050107,003550,263528,30.844823,-121.587818,16.243,33.210,0.191,0.650
20050107,003621,263559,30.844773,-121.588220,16.244,33.208,0.175,0.613
20050107,003650,263589,30.844603,-121.588488,16.239,33.211,0.183,0.647
20050107,003720,263619,30.844460,-121.588791,16.242,33.211,0.183,0.640
20050107,003750,263648,30.844266,-121.589173,16.242,33.209,0.183,0.615
20050107,003820,263678,30.844113,-121.589575,16.237,33.213,0.183,0.601
20050107,003850,263708,30.843941,-121.589930,16.237,33.212,0.191,0.613
20050107,003921,263739,30.843791,-121.590286,16.239,33.210,0.183,0.595
20050107,003950,263769,30.843686,-121.590535,16.241,33.209,0.191,0.610
20050107,004020,263798,30.843610,-121.590723,16.245,33.205,0.191,0.613
20050107,004051,263830,30.843553,-121.590865,16.240,33.209,0.191,0.615
20050107,004120,263858,30.843518,-121.591000,16.241,33.209,0.191,0.613
20050107,004150,263889,30.843455,-121.591138,16.242,33.208,0.183,0.596
20050107,004220,263919,30.843430,-121.591268,16.244,33.208,0.198,0.632
20050107,004250,263949,30.843423,-121.591403,16.244,33.206,0.191,0.618
20050107,004320,263978,30.843396,-121.591406,16.245,33.208,0.198,0.621
20050107,004350,264008,30.843425,-121.591418,16.249,33.203,0.191,0.603
20050107,004420,264038,30.843446,-121.591431,16.249,33.204,0.198,0.618
20050107,004450,264069,30.843438,-121.591483,16.247,33.207,0.191,0.606
20050107,004521,264099,30.843440,-121.591595,16.249,33.206,0.191,0.602
20050107,004550,264128,30.843405,-121.591760,16.250,33.207,0.191,0.599
20050107,004620,264158,30.843355,-121.591913,16.250,33.207,0.183,0.580
20050107,004650,264188,30.843303,-121.592066,16.254,33.203,0.191,0.593
20050107,004720,264219,30.843248,-121.592205,16.257,33.202,0.198,0.607
20050107,004750,264249,30.843241,-121.592320,16.258,33.200,0.191,0.590
20050107,004820,264279,30.843236,-121.592420,16.257,33.206,0.198,0.602
20050107,004851,264310,30.843208,-121.592531,16.253,33.208,0.198,0.600
20050107,004921,264340,30.843186,-121.592680,16.251,33.211,0.198,0.599
20050107,004951,264370,30.843150,-121.592836,16.257,33.208,0.198,0.598
20050107,005020,264399,30.843080,-121.592971,16.252,33.211,0.191,0.583
20050107,005051,264429,30.843096,-121.593156,16.251,33.212,0.206,0.612
20050107,005121,264459,30.843130,-121.593351,16.253,33.211,0.198,0.597
20050107,005151,264490,30.843163,-121.593525,16.254,33.210,0.198,0.596
20050107,005221,264520,30.843183,-121.593650,16.252,33.211,0.191,0.581
20050107,005251,264549,30.843220,-121.593768,16.248,33.213,0.198,0.599
20050107,005321,264579,30.843265,-121.593900,16.250,33.212,0.191,0.588
20050107,005351,264609,30.843278,-121.594001,16.247,33.214,0.191,0.592
20050107,005421,264640,30.843330,-121.594143,16.242,33.218,0.198,0.608
20050107,005451,264670,30.843373,-121.594305,16.245,33.214,0.198,0.610
20050107,005521,264700,30.843411,-121.594485,16.237,33.222,0.191,0.592
20050107,005551,264729,30.843440,-121.594638,16.240,33.218,0.198,0.599
20050107,005621,264759,30.843485,-121.594748,16.242,33.214,0.198,0.598
20050107,005652,264791,30.843523,-121.594860,16.240,33.213,0.198,0.596
20050107,005722,264820,30.843596,-121.594991,16.243,33.211,0.198,0.596
20050107,005751,264850,30.843680,-121.595151,16.244,33.209,0.191,0.585
20050107,005821,264880,30.843790,-121.595348,16.245,33.209,0.198,0.598
20050107,005851,264909,30.843856,-121.595500,16.245,33.207,0.191,0.581
20050107,005921,264939,30.843868,-121.595578,16.249,33.204,0.191,0.579
20050107,005951,264969,30.843855,-121.595670,16.244,33.208,0.198,0.590
20050107,010022,265000,30.843786,-121.595871,16.242,33.211,0.198,0.591
20050107,010052,265030,30.843686,-121.596150,16.242,33.211,0.191,0.577
20050107,010122,265061,30.843578,-121.596478,16.243,33.211,0.198,0.595
20050107,010151,265089,30.843448,-121.596831,16.239,33.211,0.198,0.597
20050107,010221,265119,30.843295,-121.597198,16.242,33.211,0.198,0.593
20050107,010252,265150,30.843093,-121.597715,16.241,33.211,0.191,0.578
20050107,010322,265180,30.842763,-121.598428,16.241,33.211,0.191,0.575
20050107,010352,265210,30.842371,-121.599320,16.239,33.212,0.191,0.570
20050107,010421,265239,30.841793,-121.600518,16.239,33.213,0.206,0.593
20050107,010453,265271,30.841156,-121.601865,16.234,33.216,0.198,0.577
20050107,010521,265299,30.840505,-121.603268,16.231,33.217,0.214,0.604
20050107,010552,265330,30.839860,-121.604680,16.228,33.219,0.198,0.575
20050107,010622,265360,30.839196,-121.606148,16.228,33.218,0.191,0.560
20050107,010652,265391,30.838581,-121.607510,16.224,33.220,0.198,0.573
20050107,010722,265421,30.837880,-121.608870,16.222,33.219,0.198,0.573
20050107,010753,265451,30.837193,-121.610311,16.220,33.220,0.198,0.572
20050107,010823,265482,30.836518,-121.611708,16.216,33.221,0.191,0.558
20050107,010852,265510,30.835878,-121.613068,16.213,33.222,0.191,0.558
20050107,010922,265540,30.835188,-121.614445,16.207,33.223,0.198,0.570
20050107,010952,265571,30.834495,-121.615825,16.205,33.223,0.191,0.557
20050107,011023,265601,30.833815,-121.617206,16.190,33.234,0.198,0.570
20050107,011053,265631,30.833115,-121.618643,16.186,33.235,0.206,0.584
20050107,011122,265660,30.832435,-121.620051,16.187,33.230,0.198,0.570
20050107,011152,265690,30.831770,-121.621385,16.161,33.245,0.198,0.568
20050107,011222,265720,30.831083,-121.622755,16.156,33.241,0.198,0.567
20050107,011253,265751,30.830383,-121.624120,16.163,33.231,0.198,0.566
20050107,011323,265781,30.829690,-121.625553,16.158,33.228,0.191,0.553
20050107,011353,265812,30.828976,-121.626915,16.163,33.218,0.198,0.566
20050107,011422,265840,30.828295,-121.628301,16.161,33.212,0.198,0.565
20050107,011453,265872,30.827591,-121.629675,16.159,33.209,0.198,0.565
20050107,011523,265901,30.826911,-121.631058,16.154,33.210,0.198,0.564
20050107,011552,265931,30.826228,-121.632435,16.154,33.206,0.198,0.564
20050107,011623,265961,30.825550,-121.633810,16.149,33.207,0.191,0.550
20050107,011653,265992,30.824856,-121.635170,16.138,33.211,0.206,0.577
20050107,011723,266022,30.824185,-121.636553,16.140,33.207,0.206,0.577
20050107,011753,266051,30.823506,-121.637925,16.137,33.206,0.206,0.576
20050107,011823,266081,30.822821,-121.639296,16.135,33.204,0.191,0.549
20050107,011853,266111,30.822133,-121.640663,16.137,33.200,0.198,0.562
20050107,011922,266141,30.821453,-121.642045,16.131,33.201,0.198,0.561
20050107,011953,266172,30.820763,-121.643418,16.132,33.198,0.206,0.575
20050107,012023,266202,30.820078,-121.644793,16.133,33.196,0.206,0.575
20050107,012053,266231,30.819371,-121.646216,16.137,33.191,0.198,0.560
20050107,012124,266263,30.818656,-121.647578,16.136,33.189,0.191,0.547
20050107,012153,266291,30.817995,-121.648913,16.137,33.188,0.206,0.574
20050107,012223,266322,30.817315,-121.650300,16.140,33.186,0.198,0.560
20050107,012253,266352,30.816625,-121.651678,16.137,33.187,0.198,0.560
20050107,012324,266382,30.815918,-121.653106,16.140,33.184,0.198,0.559
20050107,012353,266411,30.815255,-121.654445,16.142,33.182,0.206,0.573
20050107,012423,266441,30.814538,-121.655866,16.141,33.183,0.198,0.559
20050107,012453,266471,30.813851,-121.657248,16.138,33.187,0.198,0.559
20050107,012523,266502,30.813151,-121.658615,16.141,33.183,0.206,0.573
20050107,012553,266532,30.812493,-121.659960,16.138,33.187,0.198,0.559
20050107,012623,266561,30.811795,-121.661338,16.137,33.187,0.198,0.559
20050107,012653,266591,30.811103,-121.662725,16.133,33.190,0.198,0.559
20050107,012723,266621,30.810413,-121.664113,16.130,33.191,0.206,0.572
20050107,012753,266652,30.809713,-121.665491,16.125,33.196,0.206,0.572
20050107,012823,266682,30.809043,-121.666895,16.120,33.197,0.198,0.558
20050107,012854,266712,30.808328,-121.668326,16.118,33.197,0.198,0.558
20050107,012923,266741,30.807643,-121.669723,16.113,33.199,0.198,0.558
20050107,012954,266773,30.806965,-121.671123,16.112,33.197,0.206,0.572
20050107,013024,266803,30.806295,-121.672531,16.108,33.198,0.214,0.586
20050107,013053,266832,30.805615,-121.673923,16.104,33.199,0.206,0.572
20050107,013123,266862,30.804911,-121.675300,16.100,33.198,0.214,0.586
20050107,013153,266892,30.804280,-121.676651,16.103,33.194,0.206,0.572
20050107,013224,266923,30.803585,-121.678081,16.106,33.187,0.206,0.572
20050107,013254,266953,30.802925,-121.679480,16.113,33.180,0.214,0.586
20050107,013323,266981,30.802238,-121.680860,16.114,33.177,0.206,0.572
20050107,013354,267012,30.801563,-121.682241,16.119,33.173,0.206,0.572
20050107,013424,267042,30.800888,-121.683625,16.125,33.171,0.214,0.585
20050107,013454,267073,30.800218,-121.685008,16.129,33.166,0.214,0.585
20050107,013523,267101,30.799551,-121.686401,16.133,33.165,0.214,0.585
20050107,013553,267131,30.798880,-121.687793,16.140,33.163,0.206,0.571
20050107,013623,267162,30.798195,-121.689175,16.140,33.164,0.206,0.571
20050107,013653,267192,30.797531,-121.690578,16.144,33.164,0.214,0.585
20050107,013723,267222,30.796846,-121.691963,16.147,33.163,0.198,0.558
20050107,013754,267253,30.796171,-121.693358,16.152,33.163,0.214,0.585
20050107,013824,267283,30.795475,-121.694798,16.153,33.167,0.198,0.558
20050107,013854,267312,30.794830,-121.696146,16.157,33.167,0.206,0.571
20050107,013925,267344,30.794133,-121.697580,16.156,33.173,0.206,0.571
20050107,013955,267374,30.793468,-121.698970,16.154,33.178,0.206,0.571
20050107,014025,267403,30.792800,-121.700356,16.154,33.179,0.206,0.571
20050107,014055,267433,30.792116,-121.701738,16.159,33.178,0.198,0.557
20050107,014125,267463,30.791470,-121.703141,16.156,33.182,0.206,0.571
20050107,014155,267494,30.790808,-121.704531,16.159,33.182,0.206,0.571
20050107,014225,267524,30.790143,-121.705918,16.162,33.181,0.198,0.557
20050107,014254,267552,30.789486,-121.707258,16.169,33.178,0.206,0.571
20050107,014325,267583,30.788808,-121.708708,16.172,33.178,0.206,0.571
20050107,014355,267613,30.788145,-121.710110,16.174,33.180,0.206,0.571
20050107,014425,267643,30.787485,-121.711511,16.176,33.180,0.206,0.571
20050107,014455,267674,30.786838,-121.712921,16.178,33.182,0.206,0.571
20050107,014525,267704,30.786151,-121.714356,16.181,33.184,0.206,0.571
20050107,014555,267733,30.785508,-121.715708,16.183,33.185,0.206,0.571
20050107,014625,267763,30.784851,-121.717116,16.183,33.187,0.191,0.544
20050107,014656,267795,30.784176,-121.718575,16.184,33.188,0.206,0.571
20050107,014726,267824,30.783510,-121.719975,16.188,33.189,0.198,0.557
20050107,014755,267854,30.782830,-121.721375,16.186,33.193,0.198,0.557
20050107,014825,267884,30.782183,-121.722795,16.188,33.194,0.206,0.571
20050107,014855,267913,30.781520,-121.724138,16.190,33.194,0.198,0.557
20050107,014926,267945,30.780851,-121.725606,16.192,33.196,0.198,0.557
20050107,014955,267973,30.780226,-121.726981,16.192,33.197,0.206,0.571
20050107,015026,268004,30.779533,-121.728435,16.198,33.195,0.206,0.571
20050107,015055,268034,30.778895,-121.729861,16.185,33.206,0.198,0.557
20050107,015125,268064,30.778225,-121.731268,16.188,33.205,0.198,0.557
20050107,015156,268095,30.777575,-121.732691,16.189,33.206,0.198,0.557
20050107,015226,268125,30.776928,-121.734110,16.188,33.208,0.198,0.557
20050107,015255,268153,30.776270,-121.735533,16.187,33.209,0.191,0.544
20050107,015325,268184,30.775633,-121.736955,16.187,33.210,0.198,0.557
20050107,015356,268214,30.774973,-121.738366,16.187,33.210,0.206,0.571
20050107,015426,268245,30.774303,-121.739773,16.186,33.211,0.206,0.571
20050107,015456,268275,30.773660,-121.741190,16.179,33.216,0.191,0.544
20050107,015525,268303,30.773008,-121.742601,16.180,33.215,0.206,0.571
20050107,015556,268334,30.772346,-121.744005,16.152,33.235,0.214,0.585
20050107,015626,268364,30.771673,-121.745403,16.126,33.253,0.206,0.571
20050107,015655,268394,30.771031,-121.746823,16.097,33.272,0.214,0.585
20050107,015726,268425,30.770396,-121.748235,16.087,33.272,0.214,0.585
20050107,015756,268455,30.769696,-121.749665,16.048,33.292,0.214,0.585
20050107,015826,268484,30.769063,-121.751025,16.006,33.311,0.222,0.599
20050107,015857,268516,30.768415,-121.752485,15.999,33.300,0.222,0.599
20050107,015926,268544,30.767798,-121.753853,15.988,33.292,0.231,0.613
20050107,015956,268574,30.767160,-121.755266,15.993,33.267,0.222,0.599
20050107,020026,268605,30.766488,-121.756716,15.953,33.280,0.222,0.599
20050107,020056,268635,30.765833,-121.758055,15.943,33.267,0.239,0.627
20050107,020126,268664,30.765196,-121.759470,15.918,33.265,0.239,0.627
20050107,020156,268694,30.764531,-121.760863,15.925,33.242,0.239,0.627
20050107,020226,268724,30.763873,-121.762318,15.918,33.228,0.231,0.613
20050107,020256,268755,30.763258,-121.763681,15.908,33.222,0.231,0.613
20050107,020327,268785,30.762593,-121.765133,15.908,33.211,0.231,0.613
20050107,020357,268815,30.761921,-121.766525,15.944,33.167,0.239,0.627
20050107,020427,268846,30.761266,-121.767928,15.995,33.118,0.222,0.599
20050107,020457,268876,30.760625,-121.769335,16.026,33.092,0.222,0.599
20050107,020527,268905,30.759980,-121.770740,16.058,33.069,0.222,0.599
20050107,020557,268935,30.759350,-121.772165,16.081,33.062,0.222,0.599
20050107,020627,268965,30.758695,-121.773558,16.091,33.071,0.231,0.613
20050107,020657,268996,30.758051,-121.774971,16.097,33.086,0.214,0.585
20050107,020726,269024,30.757413,-121.776323,16.092,33.108,0.222,0.599
20050107,020757,269056,30.756756,-121.777790,16.090,33.128,0.214,0.585
20050107,020827,269085,30.756118,-121.779208,16.057,33.165,0.222,0.599
20050107,020857,269115,30.755458,-121.780613,16.023,33.201,0.222,0.599
20050107,020927,269145,30.754825,-121.782030,16.000,33.223,0.222,0.599
20050107,020956,269174,30.754150,-121.783418,15.954,33.258,0.239,0.627
20050107,021027,269206,30.753515,-121.784835,15.925,33.272,0.231,0.613
20050107,021058,269237,30.752840,-121.786273,15.908,33.272,0.231,0.613
20050107,021127,269265,30.752208,-121.787683,15.873,33.283,0.231,0.613
20050107,021158,269297,30.751560,-121.789083,15.862,33.275,0.239,0.627
20050107,021227,269325,30.750906,-121.790476,15.852,33.266,0.231,0.613
20050107,021258,269356,30.750271,-121.791891,15.852,33.246,0.222,0.599
20050107,021327,269386,30.749618,-121.793296,15.834,33.239,0.239,0.627
20050107,021357,269415,30.748981,-121.794705,15.834,33.222,0.239,0.627
20050107,021428,269447,30.748341,-121.796113,15.821,33.213,0.239,0.627
20050107,021458,269477,30.747715,-121.797520,15.817,33.199,0.239,0.627
20050107,021527,269506,30.747078,-121.798915,15.817,33.184,0.231,0.613
20050107,021558,269536,30.746425,-121.800301,15.812,33.176,0.222,0.599
20050107,021627,269566,30.745823,-121.801658,15.816,33.163,0.222,0.599
20050107,021658,269597,30.745171,-121.803103,15.816,33.154,0.222,0.599
20050107,021728,269627,30.744530,-121.804495,15.819,33.144,0.231,0.613
20050107,021757,269655,30.743881,-121.805880,15.826,33.133,0.222,0.599
20050107,021828,269686,30.743253,-121.807283,15.843,33.117,0.222,0.599
20050107,021858,269716,30.742608,-121.808731,15.866,33.097,0.214,0.585
20050107,021928,269747,30.742010,-121.810088,15.890,33.080,0.222,0.599
20050107,021958,269777,30.741351,-121.811456,15.908,33.070,0.206,0.571
20050107,022028,269807,30.740715,-121.812838,15.931,33.059,0.222,0.599
20050107,022059,269838,30.740065,-121.814278,15.965,33.048,0.214,0.585
20050107,022129,269868,30.739418,-121.815655,15.989,33.044,0.214,0.585
20050107,022158,269896,30.738818,-121.817018,16.001,33.052,0.206,0.571
20050107,022228,269927,30.738161,-121.818401,16.008,33.066,0.214,0.585
20050107,022259,269957,30.737498,-121.819845,16.006,33.080,0.214,0.585
20050107,022328,269987,30.736891,-121.821201,16.014,33.088,0.214,0.585
20050107,022359,270018,30.736235,-121.822643,15.992,33.118,0.214,0.585
20050107,022428,270046,30.735613,-121.823980,15.983,33.138,0.214,0.585
20050107,022459,270077,30.734953,-121.825416,15.966,33.160,0.214,0.585
20050107,022529,270107,30.734300,-121.826810,15.946,33.177,0.231,0.613
20050107,022559,270137,30.733666,-121.828205,15.939,33.181,0.214,0.585
20050107,022629,270168,30.733015,-121.829581,15.949,33.169,0.214,0.585
20050107,022659,270198,30.732355,-121.830953,15.966,33.152,0.214,0.585
20050107,022729,270228,30.731740,-121.832301,15.974,33.143,0.222,0.599
20050107,022759,270257,30.731086,-121.833741,16.003,33.119,0.214,0.585
20050107,022828,270287,30.730460,-121.835140,16.014,33.114,0.214,0.585
20050107,022858,270317,30.729840,-121.836481,16.019,33.115,0.214,0.585
20050107,022929,270348,30.729180,-121.837918,16.028,33.114,0.214,0.585
20050107,022959,270378,30.728541,-121.839303,16.034,33.117,0.222,0.599
20050107,023029,270407,30.727910,-121.840701,16.037,33.126,0.214,0.585
20050107,023058,270437,30.727288,-121.842101,16.038,33.132,0.214,0.585
20050107,023129,270467,30.726645,-121.843493,16.042,33.136,0.222,0.599
20050107,023159,270498,30.726018,-121.844890,16.045,33.142,0.214,0.585
20050107,023229,270528,30.725360,-121.846323,16.048,33.145,0.214,0.585
20050107,023259,270558,30.724751,-121.847670,16.052,33.147,0.214,0.585
20050107,023328,270587,30.724126,-121.849060,16.055,33.150,0.214,0.585
20050107,023359,270617,30.723491,-121.850448,16.061,33.150,0.214,0.585
20050107,023429,270647,30.722870,-121.851838,16.066,33.152,0.222,0.599
20050107,023459,270678,30.722258,-121.853238,16.070,33.153,0.214,0.585
20050107,023529,270708,30.721628,-121.854666,16.079,33.153,0.214,0.585
20050107,023559,270738,30.721045,-121.856013,16.078,33.157,0.214,0.585
20050107,023629,270767,30.720421,-121.857396,16.079,33.162,0.214,0.585
20050107,023700,270799,30.719773,-121.858828,16.074,33.171,0.222,0.599
20050107,023729,270827,30.719185,-121.860180,16.067,33.179,0.231,0.613
20050107,023800,270858,30.718546,-121.861620,16.055,33.192,0.239,0.627
20050107,023830,270888,30.717911,-121.863006,16.047,33.199,0.222,0.599
20050107,023900,270919,30.717310,-121.864405,16.040,33.204,0.231,0.613
20050107,023929,270947,30.716670,-121.865778,16.018,33.220,0.239,0.627
20050107,024000,270979,30.716071,-121.867185,16.021,33.211,0.239,0.627
20050107,024030,271008,30.715436,-121.868568,15.995,33.226,0.247,0.641
20050107,024100,271038,30.714828,-121.869966,15.979,33.232,0.247,0.641
20050107,024130,271068,30.714190,-121.871341,15.976,33.226,0.239,0.627
20050107,024200,271099,30.713578,-121.872745,15.970,33.223,0.247,0.641
20050107,024230,271129,30.712930,-121.874115,15.970,33.215,0.256,0.655
20050107,024300,271158,30.712313,-121.875510,15.951,33.220,0.247,0.641
20050107,024330,271188,30.711705,-121.876915,15.932,33.228,0.256,0.655
20050107,024359,271218,30.711080,-121.878305,15.904,33.240,0.264,0.668
20050107,024430,271248,30.710445,-121.879691,15.880,33.250,0.281,0.697
20050107,024500,271279,30.709801,-121.881078,15.829,33.277,0.281,0.697
20050107,024530,271309,30.709190,-121.882478,15.796,33.292,0.290,0.711
20050107,024600,271338,30.708526,-121.883845,15.774,33.289,0.272,0.683
20050107,024630,271368,30.707915,-121.885245,15.795,33.252,0.264,0.668